This demonstration page uses our WeatherBlox Daily Observations layout. Learn more.

41.55636, -103.73856

Hourly Observations for July 21, 2019

Temp ( °F °C ) Dew Point ( °F °C ) Humidity (%) Winds ( mph kmh ) Pressure ( in mb ) Visibility ( mi km ) Precip ( " mm )
12:08 am 00:08 Mostly Cloudy 64 17.8 60 15.6 87 87 NW 17 28 29.97 1015 10 16.0934 0 0.0254
12:20 am 00:20 Mostly Cloudy 64 17.8 60 15.6 87 87 NNW 15 24 29.96 1015 10 16.0934 0 0.0254
12:53 am 00:53 Partly Cloudy 64 17.8 60 15.6 87 87 ENE 8 13 29.98 1015 10 16.0934 0 0.0254
1:40 am 01:40 Mostly Cloudy 64 17.8 59 15 84 84 SE 16 26 29.89 1012 10 16.0934 0 0
1:53 am 01:53 Partly Cloudy 65 18.3 60 15.6 84 84 ESE 15 24 29.89 1012 10 16.0934 0 0
2:53 am 02:53 Clear 64 17.8 61 16.1 90 90 SSW 8 13 29.9 1013 10 16.0934 0 0
3:53 am 03:53 Mostly Cloudy 65 18.3 61 16.1 87 87 ENE 5 7 29.95 1014 10 16.0934 0 0
4:53 am 04:53 Cloudy 66 18.9 61 16.1 84 84 ESE 9 15 29.96 1015 10 16.0934 0 0
5:53 am 05:53 Cloudy 66 18.9 61 16.1 84 84 ESE 6 9 29.98 1015 10 16.0934 0 0
6:19 am 06:19 Mostly Cloudy 65 18.3 61 16.1 87 87 E 6 9 29.95 1014 10 16.0934 0 0
6:53 am 06:53 Sunny 67 19.4 61 16.1 81 81 Calm 29.99 1016 10 16.0934 0 0
7:53 am 07:53 Sunny 68 20 61 16.1 78 78 Calm 30.01 1016 10 16.0934 0 0
8:53 am 08:53 Sunny 70 21.1 60 15.6 71 71 Calm 30.02 1017 10 16.0934 0 0
9:38 am 09:38 Mostly Cloudy 72 22.2 60 15.6 66 66 Calm 29.95 1014 10 16.0934 0 0
9:53 am 09:53 Cloudy 72 22.2 60 15.6 66 66 Calm 30.04 1017 10 16.0934 0 0
10:16 am 10:16 Cloudy 72 22.2 61 16.1 68 68 NE 5 7 29.96 1015 10 16.0934 0 0
10:27 am 10:27 Cloudy 73 22.8 61 16.1 66 66 Calm 29.96 1015 10 16.0934 0 0
10:53 am 10:53 Cloudy 73 22.8 61 16.1 66 66 E 7 11 30.07 1018 10 16.0934 0 0
11:53 am 11:53 Mostly Cloudy 76 24.4 60 15.6 58 58 E 9 15 30.08 1019 10 16.0934 0 0
12:53 pm 12:53 Cloudy 77 25 60 15.6 56 56 E 10 17 30.09 1019 10 16.0934 0 0
1:53 pm 13:53 Cloudy 75 23.9 61 16.1 62 62 ENE 12 19 30.09 1019 10 16.0934 0 0
2:53 pm 14:53 Sunny 79 26.1 60 15.6 52 52 ENE 9 15 30.08 1019 10 16.0934 0 0
3:53 pm 15:53 Mostly Cloudy 80 26.7 62 16.7 54 54 E 14 22 30.08 1019 10 16.0934 0 0
4:53 pm 16:53 Mostly Cloudy 76 24.4 62 16.7 62 62 ENE 15 24 30.1 1019 10 16.0934 0 0
5:53 pm 17:53 Sunny 77 25 61 16.1 58 58 ENE 12 19 30.11 1020 10 16.0934 0 0
6:53 pm 18:53 Mostly Sunny 76 24.4 61 16.1 60 60 NE 12 19 30.12 1020 10 16.0934 0 0
7:53 pm 19:53 Sunny 72 22.2 61 16.1 68 68 E 13 20 30.13 1020 10 16.0934 0 0
8:53 pm 20:53 Clear 67 19.4 61 16.1 81 81 E 8 13 30.17 1022 10 16.0934 0 0
9:53 pm 21:53 Mostly Cloudy 66 18.9 61 16.1 84 84 E 9 15 30.2 1023 10 16.0934 0 0
10:53 pm 22:53 Cloudy 65 18.3 60 15.6 84 84 ESE 12 19 30.22 1023 10 16.0934 0 0
11:33 pm 23:33 Cloudy 64 17.8 60 15.6 87 87 E 10 17 30.19 1022 10 16.0934 0 0
11:53 pm 23:53 Cloudy 64 17.8 59 15 84 84 E 12 19 30.23 1024 10 16.0934 0 0

Powered by AerisWeather